Location: Fort Worth, Tx
(32.7431°N, 97.3695°W)
Time: 08:27:07
(UTC-04:00)

Vanguard 1 Rocket - Pass Details

Date: 26 February 2024
Orbit: 652 x 4219 km, 34.3° (Epoch: 22 April)

Event Time Altitude Azimuth Distance (km) Brightness Sun altitude
Rises 04:32:48 0° 194° (SSW) 8,247 12.0 -44.0°
Reaches altitude 10° 04:40:53 10° 181° (S) 7,399 11.8 -42.4°
Maximum altitude 04:58:11 23° 139° (SE) 6,033 11.6 -39.0°
Drops below altitude 10° 05:12:23 10° 96° (E) 6,153 12.3 -36.1°
Sets 05:17:52 0° 83° (E) 6,645 12.8 -35.0°
